EW7961 Weather Reports


Display with metric or nautical units.
time (UTC)temp
F
wind
direction
speed
MPH
gust
MPH
rain 1hr
in
rain 24hr
in
rain mn
in
humidity
%
barometer
mb
20260509154026 67 277 2.0 3.0 0.00 0.36 0.36 74 1010.3
20260509153026 66 289 2.0 5.0 0.00 0.36 0.36 75 1010.3
20260509152028 65 271 2.0 4.0 0.00 0.36 0.36 79 1010.3
20260509151026 64 296 2.0 4.0 0.00 0.36 0.36 81 1010.2
20260509150026 64 288 1.0 3.0 0.00 0.36 0.36 82 1010.2
20260509145026 63 303 1.0 3.0 0.00 0.36 0.36 83 1010.2
20260509144026 62 319 1.0 2.0 0.00 0.36 0.36 85 1010.2
20260509143107 61 326 1.0 2.0 0.00 0.36 0.36 88 1010.2
20260509142107 61 353 1.0 2.0 0.00 0.36 0.36 89 1010.2
20260509141027 60 327 1.0 3.0 0.00 0.36 0.36 90 1010.1
20260509140027 60 308 2.0 3.0 0.00 0.36 0.36 90 1010.0
20260509135027 60 288 1.0 2.0 0.00 0.36 0.36 91 1010.0
20260509134029 59 349 2.0 3.0 0.00 0.36 0.36 92 1010.1
20260509133027 59 260 2.0 3.0 0.00 0.36 0.36 92 1010.0
20260509132108 59 271 2.0 3.0 0.00 0.36 0.36 93 1009.9
20260509131028 59 271 3.0 3.0 0.00 0.36 0.36 94 1009.9
20260509130028 58 248 3.0 4.0 0.00 0.36 0.36 95 1010.1
20260509125028 58 270 3.0 4.0 0.00 0.36 0.36 96 1010.1
20260509124148 58 266 3.0 4.0 0.00 0.36 0.36 96 1010.3
20260509123029 58 260 3.0 4.0 0.00 0.36 0.36 97 1010.3
20260509122108 58 262 3.0 4.0 0.00 0.36 0.36 97 1010.3
20260509121029 58 264 3.0 4.0 0.00 0.36 0.36 97 1010.2
20260509120108 58 252 3.0 4.0 0.00 0.36 0.36 97 1010.2
20260509115029 58 266 3.0 4.0 0.00 0.36 0.36 97 1010.1
20260509114029 58 251 3.0 4.0 0.00 0.36 0.36 97 1009.9
20260509113028 58 260 3.0 4.0 0.00 0.36 0.36 97 1010.1
20260509112029 58 260 3.0 4.0 0.00 0.36 0.36 97 1010.1
20260509111029 58 266 4.0 4.0 0.00 0.36 0.36 97 1010.1
20260509110030 58 260 3.0 4.0 0.00 0.36 0.36 97 1010.1
20260509105029 58 253 4.0 4.0 0.00 0.36 0.36 97 1010.1
20260509104150 58 252 4.0 4.0 0.00 0.36 0.36 97 1009.9
20260509103016 58 241 4.0 4.0 0.00 0.36 0.36 97 1009.9
20260509102016 58 254 4.0 5.0 0.00 0.36 0.36 97 1009.8
20260509101030 58 243 4.0 4.0 0.00 0.36 0.36 97 1009.7
20260509100030 58 260 4.0 4.0 0.00 0.36 0.36 97 1009.7
20260509095030 58 251 4.0 4.0 0.00 0.36 0.36 97 1009.7
20260509094034 58 250 4.0 5.0 0.00 0.36 0.36 97 1009.7
20260509093030 58 247 4.0 5.0 0.00 0.36 0.36 97 1009.6
20260509092020 58 248 4.0 5.0 0.00 0.36 0.36 97 1009.5
20260509091057 58 253 4.0 5.0 0.00 0.36 0.36 97 1009.4
20260509090017 58 250 4.0 5.0 0.00 0.36 0.36 97 1009.4
20260509085017 58 245 4.0 5.0 0.00 0.36 0.36 97 1009.5
20260509084017 58 245 4.0 5.0 0.00 0.36 0.36 97 1009.5
20260509083057 58 250 4.0 5.0 0.00 0.36 0.36 97 1009.6
20260509082021 58 246 4.0 5.0 0.00 0.36 0.36 97 1009.5
20260509081018 58 249 4.0 5.0 0.00 0.36 0.36 97 1009.4
20260509080101 58 264 4.0 5.0 0.00 0.36 0.36 96 1009.4
20260509075107 58 253 4.0 6.0 0.00 0.36 0.36 96 1009.4
20260509074022 58 256 5.0 5.0 0.00 0.36 0.36 96 1009.3
20260509073021 58 243 5.0 5.0 0.00 0.36 0.36 96 1009.4
20260509072101 58 258 5.0 5.0 0.00 0.36 0.36 96 1009.3
20260509071022 57 245 5.0 5.0 0.00 0.36 0.36 96 1009.2
20260509070018 57 253 4.0 5.0 0.00 0.36 0.36 96 1009.2
20260509065019 57 239 4.0 5.0 0.00 0.36 0.36 95 1009.1
20260509064019 58 237 4.0 4.0 0.00 0.36 0.36 95 1009.1
20260509063019 58 242 4.0 4.0 0.00 0.36 0.36 95 1009.1
20260509062019 58 242 4.0 5.0 0.00 0.36 0.36 95 1009.1
20260509061029 58 239 4.0 5.0 0.00 0.36 0.36 95 1009.2
20260509060019 58 273 4.0 4.0 0.00 0.36 0.36 95 1009.3
20260509055019 58 248 3.0 4.0 0.00 0.36 0.36 95 1009.4
20260509054020 58 250 3.0 4.0 0.00 0.36 0.36 95 1009.4
20260509053020 58 250 3.0 4.0 0.00 0.36 0.36 95 1009.5
20260509052020 58 258 3.0 4.0 0.00 0.36 0.36 95 1009.5
20260509051017 58 303 3.0 4.0 0.02 0.36 0.36 95 1009.5
20260509050017 59 247 3.0 5.0 0.03 0.36 0.36 95 1009.6
20260509045017 59 261 4.0 5.0 0.04 0.36 0.36 94 1009.7
20260509044020 59 266 4.0 6.0 0.08 0.36 0.36 94 1009.7
20260509043021 59 51 1.0 3.0 0.12 0.35 0.35 94 1009.8
20260509042018 59 38 2.0 4.0 0.16 0.35 0.35 94 1009.9
20260509041018 59 255 3.0 5.0 0.19 0.34 0.34 93 1010.2
20260509040018 59 263 3.0 5.0 0.21 0.33 0.33 93 1010.3
20260509035018 59 262 3.0 4.0 0.24 0.31 0.31 93 1010.5
20260509034018 60 341 3.0 5.0 0.24 0.28 0.28 92 1010.7
20260509033018 60 253 2.0 4.0 0.21 0.23 0.23 92 1010.9
20260509032019 60 291 3.0 4.0 0.18 0.19 0.19 91 1010.9
20260509031019 60 288 2.0 4.0 0.14 0.15 0.15 90 1010.8
20260509030019 61 291 2.0 4.0 0.10 0.11 0.11 89 1010.9
20260509025019 61 353 2.0 4.0 0.06 0.07 0.07 88 1010.8
20260509024019 61 347 2.0 3.0 0.03 0.04 0.04 87 1010.7
20260509023019 61 16 1.0 3.0 0.01 0.02 0.02 86 1010.6
20260509022059 61 338 1.0 2.0 0.00 0.01 0.01 85 1010.4
20260509021019 61 298 2.0 2.0 0.00 0.01 0.01 85 1010.3
20260509020019 61 329 1.0 2.0 0.00 0.01 0.01 85 1010.0
20260509015019 61 302 2.0 3.0 0.01 0.01 0.01 84 1009.7
20260509014019 61 322 2.0 3.0 0.01 0.01 0.01 84 1009.4
20260509013019 62 330 2.0 3.0 0.01 0.01 0.01 83 1009.2
20260509012017 63 322 1.0 3.0 0.01 0.01 0.01 81 1009.1
20260509011100 64 355 2.0 3.0 0.01 0.01 0.01 78 1009.2
20260509010020 65 336 2.0 5.0 0.00 0.00 0.00 75 1009.3
20260509005020 67 335 2.0 7.0 0.00 0.00 0.00 71 1008.9
20260509004017 68 294 1.0 4.0 0.00 0.00 0.00 68 1008.7
20260509003017 69 285 2.0 5.0 0.00 0.00 0.00 63 1008.9
20260509002020 69 291 2.0 4.0 0.00 0.00 0.00 60 1008.8
20260509001017 70 272 2.0 4.0 0.00 0.00 0.00 60 1008.7
20260509000021 70 263 3.0 6.0 0.00 0.00 0.00 59 1008.5
20260508235101 71 266 2.0 5.0 0.00 0.00 0.00 58 1008.5
20260508234018 72 275 2.0 4.0 0.00 0.00 0.00 56 1008.4
20260508233018 72 271 2.0 4.0 0.00 0.00 0.00 54 1008.4
20260508232018 73 273 2.0 4.0 0.00 0.00 0.00 53 1008.5
20260508231059 74 275 2.0 6.0 0.00 0.00 0.00 52 1008.5
20260508230018 75 277 2.0 5.0 0.00 0.00 0.00 50 1008.5
20260508225019 75 269 3.0 6.0 0.00 0.00 0.00 49 1008.5
20260508224019 76 252 3.0 6.0 0.00 0.00 0.00 48 1008.5
20260508223019 78 256 3.0 7.0 0.00 0.00 0.00 45 1008.5
20260508222019 77 275 3.0 6.0 0.00 0.00 0.00 45 1008.5
20260508221059 77 258 3.0 6.0 0.00 0.00 0.00 44 1008.6
20260508220019 78 255 3.0 7.0 0.00 0.00 0.00 43 1008.7
20260508215100 78 263 3.0 6.0 0.00 0.00 0.00 43 1008.7
20260508214019 78 274 3.0 6.0 0.00 0.00 0.00 43 1008.8
20260508213059 77 256 3.0 7.0 0.00 0.00 0.00 45 1008.9
20260508212020 76 269 3.0 6.0 0.00 0.00 0.00 46 1009.1
20260508211100 78 261 2.0 4.0 0.00 0.00 0.00 43 1009.1
20260508210017 79 270 3.0 6.0 0.00 0.00 0.00 42 1009.2
20260508205057 78 264 3.0 5.0 0.00 0.00 0.00 45 1009.4
20260508204017 77 270 3.0 7.0 0.00 0.00 0.00 45 1009.5
20260508203020 76 273 3.0 5.0 0.00 0.00 0.00 48 1009.6
20260508202021 76 258 3.0 6.0 0.00 0.00 0.00 48 1009.7
20260508201020 76 251 3.0 7.0 0.00 0.00 0.00 47 1009.7
20260508200017 77 257 3.0 6.0 0.00 0.00 0.00 45 1009.9
20260508195018 76 260 3.0 7.0 0.00 0.00 0.00 44 1009.9
20260508194018 75 264 2.0 4.0 0.00 0.00 0.00 47 1010.0
20260508193018 74 270 3.0 4.0 0.00 0.00 0.00 49 1010.1
20260508192104 73 265 3.0 6.0 0.00 0.00 0.00 50 1010.1
20260508191018 73 271 2.0 5.0 0.00 0.00 0.00 52 1010.2
20260508190058 73 275 2.0 5.0 0.00 0.00 0.00 51 1010.3
20260508185059 73 270 2.0 5.0 0.00 0.00 0.00 51 1010.3
20260508184018 73 275 3.0 5.0 0.00 0.00 0.00 51 1010.4
20260508183019 73 269 3.0 4.0 0.00 0.00 0.00 51 1010.6
20260508182019 72 272 2.0 3.0 0.00 0.00 0.00 52 1010.8
20260508181019 72 261 2.0 4.0 0.00 0.00 0.00 52 1010.9
20260508180019 71 266 2.0 4.0 0.00 0.00 0.00 53 1011.0
20260508175019 71 276 2.0 5.0 0.00 0.00 0.00 52 1011.1
20260508174019 70 286 2.0 4.0 0.00 0.00 0.00 55 1011.3
20260508173028 69 272 2.0 5.0 0.00 0.00 0.00 57 1011.5
20260508172028 68 278 2.0 3.0 0.00 0.00 0.00 58 1011.6
20260508171029 67 272 1.0 3.0 0.00 0.00 0.00 58 1011.6
20260508170028 66 282 2.0 3.0 0.00 0.00 0.00 60 1011.9
20260508165109 65 280 1.0 2.0 0.00 0.00 0.00 62 1012.2
20260508164149 65 301 1.0 2.0 0.00 0.00 0.00 62 1012.4
20260508163029 65 320 1.0 2.0 0.00 0.00 0.00 61 1012.5
20260508162149 65 306 0.0 2.0 0.00 0.00 0.00 61 1012.6
20260508161029 65 308 1.0 2.0 0.00 0.00 0.00 60 1012.7
20260508160029 65 315 1.0 3.0 0.00 0.00 0.00 59 1012.8
20260508155030 65 287 2.0 3.0 0.00 0.00 0.00 58 1012.9